Details for Etihad Airways at OMAA




Go Back


Latest METAR
Local Time

OMAA 220900Z 29007KT 250V330 CAVOK 41/17 Q1006 NOSIG
22/09/2018, 13:27:54

Description
Results
Etihad Airways Logo
Number of Pilots based at OMAA
0 Pilots Based here
Number of Etihad Airways Flights Departed from OMAA
0 Flights Departed
Number of Etihad Airways Flights Arrived at OMAA
1 Flights Arrived
Number of Etihad Airways Schedules Departing from OMAA
144 Schedules
Number of Etihad Airways Schedules Arriving at OMAA
141 Schedules
Number of Etihad Airways Schedules Departing from OMAA availible today
134 Schedules Today
Number of Etihad Airways Schedules Arriving at OMAA availible today
136 Schedules Today
Average Landing Rate at OMAA
-437 fpm
Etihad Airways Average Landing Rate at OMAA
-301 fpm
Total Fuel Purchased at OMAA by Etihad Airways
0.00 kgs / 0.00 lbs

Pilots Based at OMAA


Pilot ID
Pilot Name
Pilot Rank
No. of Flights
No. of Flying Hours
There are no pilots assigned to this hub!   Will you be the first?
Content